Portada
METAR-TAF:

METAR-TAF

Aeroports :

Nueva Loja, Equador

latitud: 00-05-33N, longitud: 076-52-10W, altitud: 299 m

Observació

L'informe es va fer fa 5 hores i 30 minuts, a les 22:00 UTC
Vent 2 kt del Sud/Sud-Est
Temperatura 28°C
Humitat 74%
Pressió 1007 hPa
Visibilitat 10 km o més
Núvols disperses a una alçada de 1600 ft
Cel ennuvolat a una alçada de 9000 ft

METAR: SENL 282200Z 16002KT 9999 SCT016 BKN090 28/23 Q1007 RMK A2976

Hora: 22:30 (03:30 UTC)


TAF: manca

Observacions i pronòstics meteorològics de més de 4000 aeroports (METAR i TAF).

Les estacions disponibles són els punts grocs i vermells al mapa.

Posi el ratolí al punt desitjat per veure el nom de l'estació.

Feu clic per veure les observacions i els pronòstics meteorològics.

Per canviar el mapa: feu clic els botons verds amb una creu de color negre per apropar; al botó verd amb un guió per allunyar la imatge; o en les fletxes verdes per a mapes adjacents.


METAR-TAF: